Dothan, AL

10:26 AM CST on December 14, 2017 (GMT -0600)
Dothan Regional

Weather History for KDHN - March, 2014

Change the Weather History Date:

Sunday, March 30, 2014

  Actual Average Record
Temperature  
Mean Temperature 57 °F 61 °F  
Max Temperature 70 °F 74 °F 88 °F (1946)
Min Temperature 43 °F 49 °F 35 °F (1964)
Degree Days  
Heating Degree Days 8 5  
Month to date heating degree days 261 207  
Since 1 July heating degree days 1926 1766  
Cooling Degree Days 0 1  
Month to date cooling degree days 2 29  
Year to date cooling degree days 11 39  
Growing Degree Days 7 (Base 50)    
Moisture  
Dew Point 38 °F    
Average Humidity 56    
Maximum Humidity 82    
Minimum Humidity 29    
Precipitation  
Precipitation 0.00 in 0.26 in 1.87 in (1940)
Month to date precipitation 5.30 5.64  
Year to date precipitation 13.03 15.04  
Sea Level Pressure  
Sea Level Pressure 30.16 in    
Wind  
Wind Speed 10 mph (NW)    
Max Wind Speed 14 mph    
Max Gust Speed 21 mph    
Visibility 10 miles    
Events      
T = Trace of Precipitation, MM = Missing Value Source: NWS Daily Summary

Daily Weather History Graph

Daily Weather History Graph

Search for Another Location

Airport or City:

Trip Planner

Search our weather history database for the weather conditions in past years. The results will help you decide how hot, cold, wet, or windy it might be!

Date:

Astronomy

Mar. 30, 2014 Rise Set
Actual Time 6:32 AM CDT 6:59 PM CDT
Civil Twilight 6:08 AM CDT 7:24 PM CDT
Nautical Twilight 5:40 AM CDT 7:52 PM CDT
Astronomical Twilight 5:11 AM CDT 8:21 PM CDT
Moon 6:18 AM CDT (3/30) 7:09 PM CDT (3/30)
Length of Visible Light 13h 15m
Length of Day
12h 26m
Waning Crescent, 0% of the Moon is Illuminated
Mar 30
Waning Crescent
Mar 30
New
Apr 7
First Quarter
Apr 15
Full
Apr 22
Last Quarter

Hourly Weather History & Observations

Time (CDT) Temp. Windchill Dew Point Humidity Pressure Visibility Wind Dir Wind Speed Gust Speed Precip Events Conditions
12:53 AM 50.0 °F - 42.1 °F 74% 30.14 in 10.0 mi NNW 8.1 mph - N/A   Scattered Clouds
1:53 AM 50.0 °F - 39.0 °F 66% 30.13 in 10.0 mi NW 9.2 mph - N/A   Clear
2:53 AM 46.9 °F - 39.0 °F 74% 30.13 in 10.0 mi NW 9.2 mph - N/A   Clear
3:53 AM 46.0 °F 41.0 °F 39.9 °F 79% 30.12 in 10.0 mi WNW 10.4 mph - N/A   Clear
4:53 AM 45.0 °F 39.7 °F 39.9 °F 82% 30.12 in 10.0 mi NW 10.4 mph - N/A   Clear
5:53 AM 44.1 °F 38.1 °F 39.0 °F 82% 30.14 in 10.0 mi NW 11.5 mph - N/A   Clear
6:53 AM 44.1 °F 37.4 °F 39.0 °F 82% 30.17 in 10.0 mi NNW 13.8 mph - N/A   Clear
7:53 AM 46.0 °F 39.9 °F 39.9 °F 79% 30.19 in 10.0 mi NNW 13.8 mph - N/A   Clear
8:53 AM 48.9 °F - 39.0 °F 69% 30.21 in 10.0 mi North 12.7 mph 20.7 mph N/A   Clear
9:53 AM 53.1 °F - 39.0 °F 59% 30.23 in 10.0 mi North 13.8 mph - N/A   Clear
10:53 AM 57.0 °F - 39.0 °F 51% 30.22 in 10.0 mi North 11.5 mph - N/A   Clear
11:53 AM 59.0 °F - 37.9 °F 46% 30.20 in 10.0 mi NNW 8.1 mph - N/A   Clear
12:53 PM 64.0 °F - 37.9 °F 38% 30.18 in 10.0 mi NW 12.7 mph 18.4 mph N/A   Clear
1:53 PM 66.9 °F - 37.0 °F 33% 30.15 in 10.0 mi NNW 12.7 mph 17.3 mph N/A   Clear
2:53 PM 68.0 °F - 35.1 °F 30% 30.14 in 10.0 mi NNW 4.6 mph 18.4 mph N/A   Clear
3:53 PM 69.1 °F - 35.1 °F 29% 30.13 in 10.0 mi NNW 13.8 mph 19.6 mph N/A   Clear
4:53 PM 70.0 °F - 36.0 °F 29% 30.12 in 10.0 mi NW 13.8 mph 19.6 mph N/A   Clear
5:53 PM 68.0 °F - 37.0 °F 32% 30.13 in 10.0 mi NNW 9.2 mph - N/A   Clear
6:53 PM 63.0 °F - 39.0 °F 41% 30.13 in 10.0 mi NNW 5.8 mph - N/A   Clear
7:53 PM 60.1 °F - 37.0 °F 42% 30.15 in 10.0 mi NW 4.6 mph - N/A   Clear
8:53 PM 57.0 °F - 37.9 °F 49% 30.17 in 10.0 mi Calm Calm - N/A   Clear
9:53 PM 55.0 °F - 37.9 °F 53% 30.17 in 10.0 mi WNW 5.8 mph - N/A   Clear
10:53 PM 54.0 °F - 39.0 °F 57% 30.17 in 10.0 mi NW 4.6 mph - N/A   Clear
11:53 PM 52.0 °F - 39.0 °F 61% 30.18 in 10.0 mi WNW 6.9 mph - N/A   Clear